Time,TemperatureF,DewpointF,PressureIn,WindDirection,WindDirectionDegrees,WindSpeedMPH,WindSpeedGustMPH,Humidity,HourlyPrecipIn,Conditions,Clouds,dailyrainin,SoftwareType,DateUTC
2013-01-20 00:00:00,41.8,30.9,29.90,SW,225,2.5,4.5,65,0.00,,,0.00,WUHU216HW,2013-01-20 05:00:00,
2013-01-20 00:01:00,41.6,30.7,29.90,SSE,158,8.5,8.5,65,0.00,,,0.00,WUHU216HW,2013-01-20 05:01:00,
2013-01-20 00:03:00,41.6,30.7,29.90,SSE,158,2.5,8.5,65,0.00,,,0.00,WUHU216HW,2013-01-20 05:03:00,
2013-01-20 00:08:00,41.6,31.1,29.89,SSW,203,2.7,8.5,66,0.00,,,0.00,WUHU216HW,2013-01-20 05:08:00,
2013-01-20 00:13:00,41.6,31.1,29.89,SSW,203,1.8,6.9,66,0.00,,,0.00,WUHU216HW,2013-01-20 05:13:00,
2013-01-20 00:18:00,41.4,30.9,29.89,SE,135,4.7,7.8,66,0.00,,,0.00,WUHU216HW,2013-01-20 05:18:00,
2013-01-20 00:23:00,41.4,30.9,29.88,South,180,3.4,7.8,66,0.00,,,0.00,WUHU216HW,2013-01-20 05:23:00,
2013-01-20 00:28:00,41.4,30.9,29.88,South,180,3.8,6.3,66,0.00,,,0.00,WUHU216HW,2013-01-20 05:28:00,
2013-01-20 00:33:00,41.4,30.9,29.87,SSE,158,3.1,6.3,66,0.00,,,0.00,WUHU216HW,2013-01-20 05:33:00,
2013-01-20 00:38:00,41.4,30.9,29.88,SSE,158,2.5,5.4,66,0.00,,,0.00,WUHU216HW,2013-01-20 05:38:00,
2013-01-20 00:43:00,41.6,31.1,29.87,SSW,203,2.2,5.6,66,0.00,,,0.00,WUHU216HW,2013-01-20 05:43:00,
2013-01-20 00:48:00,41.6,30.7,29.87,SE,135,4.7,5.6,65,0.00,,,0.00,WUHU216HW,2013-01-20 05:48:00,
2013-01-20 00:53:00,41.6,30.7,29.86,SW,225,2.5,4.9,65,0.00,,,0.00,WUHU216HW,2013-01-20 05:53:00,
2013-01-20 00:58:00,41.8,30.9,29.86,SSW,203,3.4,4.9,65,0.00,,,0.00,WUHU216HW,2013-01-20 05:58:00,
2013-01-20 01:03:00,41.8,30.9,29.86,SW,225,2.0,4.0,65,0.00,,,0.00,WUHU216HW,2013-01-20 06:03:00,
2013-01-20 01:08:00,41.8,30.9,29.86,South,180,4.7,4.7,65,0.00,,,0.00,WUHU216HW,2013-01-20 06:08:00,
2013-01-20 01:13:00,41.8,30.9,29.86,SSW,203,2.2,4.7,65,0.00,,,0.00,WUHU216HW,2013-01-20 06:13:00,
2013-01-20 01:18:00,41.6,30.7,29.85,SSW,203,3.6,4.0,65,0.00,,,0.00,WUHU216HW,2013-01-20 06:18:00,
2013-01-20 01:23:00,41.6,30.7,29.85,SW,225,3.4,7.6,65,0.00,,,0.00,WUHU216HW,2013-01-20 06:23:00,
2013-01-20 01:28:00,41.6,30.7,29.84,South,180,1.8,7.6,65,0.00,,,0.00,WUHU216HW,2013-01-20 06:28:00,
2013-01-20 01:33:00,41.6,30.7,29.84,South,180,3.6,5.6,65,0.00,,,0.00,WUHU216HW,2013-01-20 06:33:00,
2013-01-20 01:38:00,41.6,30.7,29.84,South,180,5.8,7.2,65,0.00,,,0.00,WUHU216HW,2013-01-20 06:38:00,
2013-01-20 01:43:00,41.6,30.7,29.83,SSW,203,2.9,7.2,65,0.00,,,0.00,WUHU216HW,2013-01-20 06:43:00,
2013-01-20 01:48:00,41.6,30.7,29.83,SSE,158,7.4,7.4,65,0.00,,,0.00,WUHU216HW,2013-01-20 06:48:00,
2013-01-20 01:53:00,41.6,30.7,29.84,SSW,203,1.3,7.4,65,0.00,,,0.00,WUHU216HW,2013-01-20 06:53:00,
2013-01-20 01:58:00,41.6,30.7,29.83,South,180,4.7,5.4,65,0.00,,,0.00,WUHU216HW,2013-01-20 06:58:00,
2013-01-20 02:03:00,41.6,30.7,29.83,SSE,158,3.6,5.4,65,0.00,,,0.00,WUHU216HW,2013-01-20 07:03:00,
2013-01-20 02:08:00,41.6,30.7,29.83,South,180,4.0,4.0,65,0.00,,,0.00,WUHU216HW,2013-01-20 07:08:00,
2013-01-20 02:13:00,41.6,30.7,29.83,SSW,203,1.1,6.0,65,0.00,,,0.00,WUHU216HW,2013-01-20 07:13:00,
2013-01-20 02:18:00,41.6,30.7,29.82,SW,225,4.3,6.0,65,0.00,,,0.00,WUHU216HW,2013-01-20 07:18:00,
2013-01-20 02:23:00,41.6,30.7,29.83,SSE,158,6.0,6.0,65,0.00,,,0.00,WUHU216HW,2013-01-20 07:23:00,
2013-01-20 02:28:00,41.6,30.7,29.82,SSE,158,3.6,6.0,65,0.00,,,0.00,WUHU216HW,2013-01-20 07:28:00,
2013-01-20 02:33:00,41.6,30.7,29.82,SSE,158,5.4,5.4,65,0.00,,,0.00,WUHU216HW,2013-01-20 07:33:00,
2013-01-20 02:38:00,41.6,30.7,29.82,South,180,2.0,5.4,65,0.00,,,0.00,WUHU216HW,2013-01-20 07:38:00,
2013-01-20 02:43:00,41.4,30.5,29.82,SSW,203,2.2,4.7,65,0.00,,,0.00,WUHU216HW,2013-01-20 07:43:00,
2013-01-20 02:48:00,41.4,30.5,29.82,South,180,1.3,4.7,65,0.00,,,0.00,WUHU216HW,2013-01-20 07:48:00,
2013-01-20 02:53:00,41.4,30.5,29.82,South,180,2.7,3.1,65,0.00,,,0.00,WUHU216HW,2013-01-20 07:53:00,
2013-01-20 02:58:00,41.4,30.5,29.81,SSE,158,3.6,3.8,65,0.00,,,0.00,WUHU216HW,2013-01-20 07:58:00,
2013-01-20 03:03:00,41.4,30.9,29.81,SW,225,3.4,3.8,66,0.00,,,0.00,WUHU216HW,2013-01-20 08:03:00,
2013-01-20 03:08:00,41.4,30.5,29.81,SW,225,2.0,4.0,65,0.00,,,0.00,WUHU216HW,2013-01-20 08:08:00,
2013-01-20 03:13:00,41.4,30.5,29.81,SE,135,3.4,4.0,65,0.00,,,0.00,WUHU216HW,2013-01-20 08:13:00,
2013-01-20 03:18:00,41.4,30.5,29.80,SE,135,1.3,4.9,65,0.00,,,0.00,WUHU216HW,2013-01-20 08:18:00,
2013-01-20 03:23:00,41.6,30.7,29.80,South,180,1.3,4.9,65,0.00,,,0.00,WUHU216HW,2013-01-20 08:23:00,
2013-01-20 03:28:00,41.6,30.7,29.80,WSW,248,4.7,4.7,65,0.00,,,0.00,WUHU216HW,2013-01-20 08:28:00,
2013-01-20 03:34:00,41.6,30.7,29.80,South,180,2.9,4.7,65,0.00,,,0.00,WUHU216HW,2013-01-20 08:34:00,
2013-01-20 03:39:00,41.6,30.7,29.80,WSW,248,3.4,4.5,65,0.00,,,0.00,WUHU216HW,2013-01-20 08:39:00,
2013-01-20 03:44:00,41.6,30.7,29.79,South,180,2.0,4.0,65,0.00,,,0.00,WUHU216HW,2013-01-20 08:44:00,
2013-01-20 03:49:00,41.6,30.7,29.79,SW,225,3.4,4.7,65,0.00,,,0.00,WUHU216HW,2013-01-20 08:49:00,
2013-01-20 03:54:00,41.6,30.7,29.79,SSE,158,1.8,5.8,65,0.00,,,0.00,WUHU216HW,2013-01-20 08:54:00,
2013-01-20 03:59:00,41.8,30.9,29.79,SSW,203,3.4,6.0,65,0.00,,,0.00,WUHU216HW,2013-01-20 08:59:00,
2013-01-20 04:04:00,41.8,30.9,29.79,WSW,248,1.1,6.0,65,0.00,,,0.00,WUHU216HW,2013-01-20 09:04:00,
2013-01-20 04:09:00,41.8,30.9,29.79,SSW,203,3.4,4.9,65,0.00,,,0.00,WUHU216HW,2013-01-20 09:09:00,
2013-01-20 04:14:00,41.8,30.9,29.78,SE,135,1.8,4.9,65,0.00,,,0.00,WUHU216HW,2013-01-20 09:14:00,
2013-01-20 04:19:00,41.8,30.9,29.78,SSE,158,5.4,5.4,65,0.00,,,0.00,WUHU216HW,2013-01-20 09:19:00,
2013-01-20 04:24:00,41.8,30.9,29.78,SE,135,1.3,5.4,65,0.00,,,0.00,WUHU216HW,2013-01-20 09:24:00,
2013-01-20 04:29:00,41.8,30.9,29.78,SSE,158,2.5,4.7,65,0.00,,,0.00,WUHU216HW,2013-01-20 09:29:00,
2013-01-20 04:34:00,41.8,30.9,29.77,SSE,158,1.1,4.7,65,0.00,,,0.00,WUHU216HW,2013-01-20 09:34:00,
2013-01-20 04:39:00,41.8,30.9,29.77,WSW,248,2.0,2.5,65,0.00,,,0.00,WUHU216HW,2013-01-20 09:39:00,
2013-01-20 04:44:00,41.8,30.9,29.77,SSW,203,1.8,2.5,65,0.00,,,0.00,WUHU216HW,2013-01-20 09:44:00,
2013-01-20 04:49:00,41.8,30.9,29.77,SW,225,2.0,4.0,65,0.00,,,0.00,WUHU216HW,2013-01-20 09:49:00,
2013-01-20 04:54:00,41.8,30.9,29.77,SW,225,2.9,4.0,65,0.00,,,0.00,WUHU216HW,2013-01-20 09:54:00,
2013-01-20 04:59:00,41.9,31.0,29.77,SW,225,4.3,4.3,65,0.00,,,0.00,WUHU216HW,2013-01-20 09:59:00,
2013-01-20 05:04:00,41.9,31.0,29.76,SSE,158,1.8,4.3,65,0.00,,,0.00,WUHU216HW,2013-01-20 10:04:00,
2013-01-20 05:09:00,41.9,31.0,29.76,SW,225,2.7,3.6,65,0.00,,,0.00,WUHU216HW,2013-01-20 10:09:00,
2013-01-20 05:14:00,42.1,31.1,29.76,SSE,158,2.0,4.0,65,0.00,,,0.00,WUHU216HW,2013-01-20 10:14:00,
2013-01-20 05:19:00,42.1,30.8,29.76,South,180,1.3,4.7,64,0.00,,,0.00,WUHU216HW,2013-01-20 10:19:00,
2013-01-20 05:24:00,42.1,30.8,29.76,South,180,4.5,4.7,64,0.00,,,0.00,WUHU216HW,2013-01-20 10:24:00,
2013-01-20 05:29:00,42.1,30.8,29.75,SW,225,4.3,5.1,64,0.00,,,0.00,WUHU216HW,2013-01-20 10:29:00,
2013-01-20 05:34:00,42.1,30.8,29.75,SSE,158,1.8,6.3,64,0.00,,,0.00,WUHU216HW,2013-01-20 10:34:00,
2013-01-20 05:39:00,42.1,30.8,29.74,SSE,158,2.0,6.3,64,0.00,,,0.00,WUHU216HW,2013-01-20 10:39:00,
2013-01-20 05:44:00,42.1,30.8,29.74,SSE,158,4.9,6.3,64,0.00,,,0.00,WUHU216HW,2013-01-20 10:44:00,
2013-01-20 05:49:00,42.1,30.8,29.74,SSE,158,2.7,6.3,64,0.00,,,0.00,WUHU216HW,2013-01-20 10:49:00,
2013-01-20 05:54:00,42.1,30.8,29.74,South,180,2.9,7.6,64,0.00,,,0.00,WUHU216HW,2013-01-20 10:54:00,
2013-01-20 05:59:00,42.1,30.8,29.74,WSW,248,4.3,8.7,64,0.00,,,0.00,WUHU216HW,2013-01-20 10:59:00,
2013-01-20 06:04:00,42.1,30.8,29.74,SE,135,6.7,8.7,64,0.00,,,0.00,WUHU216HW,2013-01-20 11:04:00,
2013-01-20 06:09:00,42.1,30.8,29.74,SSE,158,3.4,6.7,64,0.00,,,0.00,WUHU216HW,2013-01-20 11:09:00,
2013-01-20 06:14:00,42.1,30.8,29.74,SSE,158,4.9,4.9,64,0.00,,,0.00,WUHU216HW,2013-01-20 11:14:00,
2013-01-20 06:19:00,42.1,30.8,29.74,South,180,1.1,4.9,64,0.00,,,0.00,WUHU216HW,2013-01-20 11:19:00,
2013-01-20 06:24:00,42.1,30.8,29.74,SSE,158,3.4,5.1,64,0.00,,,0.00,WUHU216HW,2013-01-20 11:24:00,
2013-01-20 06:29:00,42.1,30.8,29.73,SW,225,4.7,5.1,64,0.00,,,0.00,WUHU216HW,2013-01-20 11:29:00,
2013-01-20 06:34:00,42.1,30.8,29.73,SW,225,1.8,4.7,64,0.00,,,0.00,WUHU216HW,2013-01-20 11:34:00,
2013-01-20 06:39:00,42.1,30.8,29.73,SSW,203,3.8,5.6,64,0.00,,,0.00,WUHU216HW,2013-01-20 11:39:00,
2013-01-20 06:44:00,42.1,30.8,29.73,SE,135,6.3,6.3,64,0.00,,,0.00,WUHU216HW,2013-01-20 11:44:00,
2013-01-20 06:49:00,42.1,30.8,29.73,SSW,203,4.0,6.3,64,0.00,,,0.00,WUHU216HW,2013-01-20 11:49:00,
2013-01-20 06:54:00,42.1,30.8,29.73,SW,225,3.1,5.4,64,0.00,,,0.00,WUHU216HW,2013-01-20 11:54:00,
2013-01-20 06:59:00,42.1,30.8,29.73,South,180,2.7,5.4,64,0.00,,,0.00,WUHU216HW,2013-01-20 11:59:00,
2013-01-20 07:04:00,41.9,30.6,29.73,SSW,203,3.4,3.4,64,0.00,,,0.00,WUHU216HW,2013-01-20 12:04:00,
2013-01-20 07:09:00,41.9,30.6,29.73,SSW,203,4.7,4.7,64,0.00,,,0.00,WUHU216HW,2013-01-20 12:09:00,
2013-01-20 07:14:00,41.9,30.6,29.73,South,180,2.7,4.7,64,0.00,,,0.00,WUHU216HW,2013-01-20 12:14:00,
2013-01-20 07:19:00,41.9,30.6,29.72,SSE,158,1.8,4.3,64,0.00,,,0.00,WUHU216HW,2013-01-20 12:19:00,
2013-01-20 07:24:00,41.9,30.6,29.73,ESE,113,4.0,6.3,64,0.00,,,0.00,WUHU216HW,2013-01-20 12:24:00,
2013-01-20 07:29:00,41.9,30.6,29.73,SSW,203,2.2,6.3,64,0.00,,,0.00,WUHU216HW,2013-01-20 12:29:00,
2013-01-20 07:34:00,41.9,30.6,29.73,SW,225,2.5,4.3,64,0.00,,,0.00,WUHU216HW,2013-01-20 12:34:00,
2013-01-20 07:39:00,42.1,30.4,29.73,SSE,158,3.8,5.4,63,0.00,,,0.00,WUHU216HW,2013-01-20 12:39:00,
2013-01-20 07:44:00,42.1,30.4,29.72,SE,135,2.7,5.4,63,0.00,,,0.00,WUHU216HW,2013-01-20 12:44:00,
2013-01-20 07:49:00,42.1,30.4,29.72,SSW,203,7.2,7.2,63,0.00,,,0.00,WUHU216HW,2013-01-20 12:49:00,
2013-01-20 07:54:00,42.1,30.4,29.73,SW,225,7.6,7.6,63,0.00,,,0.00,WUHU216HW,2013-01-20 12:54:00,
2013-01-20 07:59:00,42.3,30.6,29.73,South,180,2.9,7.6,63,0.00,,,0.00,WUHU216HW,2013-01-20 12:59:00,
2013-01-20 08:04:00,42.5,30.7,29.72,SE,135,4.0,6.5,63,0.00,,,0.00,WUHU216HW,2013-01-20 13:04:00,
2013-01-20 08:09:00,42.7,30.9,29.72,WSW,248,2.0,6.3,63,0.00,,,0.00,WUHU216HW,2013-01-20 13:09:00,
2013-01-20 08:14:00,42.8,31.1,29.72,SSE,158,4.9,6.9,63,0.00,,,0.00,WUHU216HW,2013-01-20 13:14:00,
2013-01-20 08:19:00,43.0,31.2,29.72,SSW,203,6.0,6.9,63,0.00,,,0.00,WUHU216HW,2013-01-20 13:19:00,
2013-01-20 08:24:00,43.2,31.4,29.72,SSW,203,4.9,6.0,63,0.00,,,0.00,WUHU216HW,2013-01-20 13:24:00,
2013-01-20 08:29:00,43.4,31.2,29.72,SE,135,4.7,6.0,62,0.00,,,0.00,WUHU216HW,2013-01-20 13:29:00,
2013-01-20 08:34:00,43.6,31.4,29.72,SW,225,5.6,5.6,62,0.00,,,0.00,WUHU216HW,2013-01-20 13:34:00,
2013-01-20 08:39:00,43.7,31.6,29.73,SE,135,3.4,5.6,62,0.00,,,0.00,WUHU216HW,2013-01-20 13:39:00,
2013-01-20 08:44:00,43.9,31.3,29.72,SSW,203,5.8,5.8,61,0.00,,,0.00,WUHU216HW,2013-01-20 13:44:00,
2013-01-20 08:49:00,44.1,32.0,29.73,SE,135,2.5,6.5,62,0.00,,,0.00,WUHU216HW,2013-01-20 13:49:00,
2013-01-20 08:54:00,44.5,31.9,29.73,SW,225,4.0,6.5,61,0.00,,,0.00,WUHU216HW,2013-01-20 13:54:00,
2013-01-20 08:59:00,44.6,32.0,29.73,SSE,158,2.5,6.0,61,0.00,,,0.00,WUHU216HW,2013-01-20 13:59:00,
2013-01-20 09:04:00,45.0,32.4,29.73,SSW,203,6.0,7.6,61,0.00,,,0.00,WUHU216HW,2013-01-20 14:04:00,
2013-01-20 09:09:00,45.0,32.1,29.73,WSW,248,4.9,7.6,60,0.00,,,0.00,WUHU216HW,2013-01-20 14:09:00,
2013-01-20 09:14:00,45.4,32.3,29.73,South,180,5.4,5.6,60,0.00,,,0.00,WUHU216HW,2013-01-20 14:14:00,
2013-01-20 09:19:00,45.7,32.7,29.73,WSW,248,3.1,6.5,60,0.00,,,0.00,WUHU216HW,2013-01-20 14:19:00,
2013-01-20 09:24:00,46.1,32.5,29.73,SW,225,8.5,8.9,59,0.00,,,0.00,WUHU216HW,2013-01-20 14:24:00,
2013-01-20 09:29:00,46.3,32.2,29.73,SW,225,6.3,8.9,58,0.00,,,0.00,WUHU216HW,2013-01-20 14:29:00,
2013-01-20 09:34:00,46.8,32.8,29.73,SSW,203,2.5,6.9,58,0.00,,,0.00,WUHU216HW,2013-01-20 14:34:00,
2013-01-20 09:39:00,47.2,33.1,29.74,SSE,158,3.6,9.2,58,0.00,,,0.00,WUHU216HW,2013-01-20 14:39:00,
2013-01-20 09:44:00,47.3,33.3,29.74,SSW,203,4.7,9.2,58,0.00,,,0.00,WUHU216HW,2013-01-20 14:44:00,
2013-01-20 09:49:00,47.9,33.4,29.74,SE,135,4.7,5.4,57,0.00,,,0.00,WUHU216HW,2013-01-20 14:49:00,
2013-01-20 09:54:00,47.9,33.4,29.74,SW,225,3.8,4.7,57,0.00,,,0.00,WUHU216HW,2013-01-20 14:54:00,
2013-01-20 09:59:00,48.4,33.4,29.74,SSW,203,2.9,4.9,56,0.00,,,0.00,WUHU216HW,2013-01-20 14:59:00,
2013-01-20 10:04:00,48.6,33.1,29.74,SW,225,8.1,8.1,55,0.00,,,0.00,WUHU216HW,2013-01-20 15:04:00,
2013-01-20 10:09:00,49.0,33.5,29.73,SW,225,5.8,8.1,55,0.00,,,0.00,WUHU216HW,2013-01-20 15:09:00,
2013-01-20 10:14:00,49.3,33.8,29.73,SW,225,4.5,5.8,55,0.00,,,0.00,WUHU216HW,2013-01-20 15:14:00,
2013-01-20 10:19:00,49.9,33.8,29.73,SW,225,3.6,5.6,54,0.00,,,0.00,WUHU216HW,2013-01-20 15:19:00,
2013-01-20 10:24:00,50.2,33.8,29.73,South,180,4.9,6.9,53,0.00,,,0.00,WUHU216HW,2013-01-20 15:24:00,
2013-01-20 10:29:00,50.6,34.0,29.73,South,180,4.3,6.9,53,0.00,,,0.00,WUHU216HW,2013-01-20 15:29:00,
2013-01-20 10:34:00,50.9,33.9,29.72,SSW,203,6.0,8.3,52,0.00,,,0.00,WUHU216HW,2013-01-20 15:34:00,
2013-01-20 10:39:00,51.3,33.4,29.72,WSW,248,3.1,9.6,50,0.00,,,0.00,WUHU216HW,2013-01-20 15:39:00,
2013-01-20 10:44:00,51.7,34.6,29.72,SW,225,9.2,9.6,52,0.00,,,0.00,WUHU216HW,2013-01-20 15:44:00,
2013-01-20 10:49:00,52.0,34.5,29.71,SE,135,7.8,9.2,51,0.00,,,0.00,WUHU216HW,2013-01-20 15:49:00,
2013-01-20 10:54:00,52.4,35.3,29.72,SSW,203,5.6,7.8,52,0.00,,,0.00,WUHU216HW,2013-01-20 15:54:00,
2013-01-20 10:59:00,52.7,35.1,29.71,South,180,3.4,7.2,51,0.00,,,0.00,WUHU216HW,2013-01-20 15:59:00,
2013-01-20 11:04:00,53.1,35.5,29.71,West,270,3.8,5.6,51,0.00,,,0.00,WUHU216HW,2013-01-20 16:04:00,
2013-01-20 11:09:00,53.5,34.7,29.70,SW,225,5.4,6.5,49,0.00,,,0.00,WUHU216HW,2013-01-20 16:09:00,
2013-01-20 11:14:00,53.6,34.9,29.69,SE,135,4.0,6.5,49,0.00,,,0.00,WUHU216HW,2013-01-20 16:14:00,
2013-01-20 11:19:00,54.4,35.6,29.69,SW,225,8.3,10.5,49,0.00,,,0.00,WUHU216HW,2013-01-20 16:19:00,
2013-01-20 11:24:00,54.7,34.7,29.69,SW,225,9.8,10.5,47,0.00,,,0.00,WUHU216HW,2013-01-20 16:24:00,
2013-01-20 11:29:00,55.3,35.8,29.69,SSW,203,5.4,11.9,48,0.00,,,0.00,WUHU216HW,2013-01-20 16:29:00,
2013-01-20 11:34:00,55.6,35.0,29.69,SW,225,4.3,11.9,46,0.00,,,0.00,WUHU216HW,2013-01-20 16:34:00,
2013-01-20 11:39:00,56.0,34.2,29.68,SSW,203,6.3,9.8,44,0.00,,,0.00,WUHU216HW,2013-01-20 16:39:00,
2013-01-20 11:44:00,56.2,34.4,29.68,SW,225,5.8,9.8,44,0.00,,,0.00,WUHU216HW,2013-01-20 16:44:00,
2013-01-20 11:49:00,56.3,35.1,29.68,SW,225,8.9,13.4,45,0.00,,,0.00,WUHU216HW,2013-01-20 16:49:00,
2013-01-20 11:54:00,56.5,34.7,29.68,SSE,158,4.9,13.4,44,0.00,,,0.00,WUHU216HW,2013-01-20 16:54:00,
2013-01-20 11:59:00,56.3,33.5,29.67,SW,225,7.2,11.4,42,0.00,,,0.00,WUHU216HW,2013-01-20 16:59:00,
2013-01-20 12:04:00,56.3,33.5,29.67,WSW,248,6.9,11.4,42,0.00,,,0.00,WUHU216HW,2013-01-20 17:04:00,
2013-01-20 12:09:00,56.3,32.3,29.68,SSW,203,6.0,10.5,40,0.00,,,0.00,WUHU216HW,2013-01-20 17:09:00,
2013-01-20 12:14:00,56.2,32.1,29.67,WSW,248,6.0,12.1,40,0.00,,,0.00,WUHU216HW,2013-01-20 17:14:00,
2013-01-20 12:19:00,56.2,32.1,29.67,WSW,248,4.3,12.1,40,0.00,,,0.00,WUHU216HW,2013-01-20 17:19:00,
2013-01-20 12:24:00,56.2,32.7,29.68,WSW,248,7.6,15.9,41,0.00,,,0.00,WUHU216HW,2013-01-20 17:24:00,
2013-01-20 12:29:00,56.2,32.1,29.68,WSW,248,13.2,15.9,40,0.00,,,0.00,WUHU216HW,2013-01-20 17:29:00,
2013-01-20 12:34:00,56.2,32.1,29.67,NW,315,5.1,13.2,40,0.00,,,0.00,WUHU216HW,2013-01-20 17:34:00,
2013-01-20 12:39:00,55.8,31.9,29.67,West,270,10.3,12.8,40,0.00,,,0.00,WUHU216HW,2013-01-20 17:39:00,
2013-01-20 12:44:00,55.8,32.4,29.67,NW,315,3.4,12.8,41,0.00,,,0.00,WUHU216HW,2013-01-20 17:44:00,
2013-01-20 12:49:00,55.8,31.9,29.67,North,0,5.1,13.4,40,0.00,,,0.00,WUHU216HW,2013-01-20 17:49:00,
2013-01-20 12:54:00,55.8,32.4,29.67,WSW,248,7.4,13.4,41,0.00,,,0.00,WUHU216HW,2013-01-20 17:54:00,
2013-01-20 12:59:00,55.8,32.4,29.67,SW,225,7.6,11.4,41,0.00,,,0.00,WUHU216HW,2013-01-20 17:59:00,
2013-01-20 13:04:00,55.8,32.4,29.67,SSE,158,11.4,11.4,41,0.00,,,0.00,WUHU216HW,2013-01-20 18:04:00,
2013-01-20 13:09:00,55.8,32.4,29.67,WNW,293,5.4,11.4,41,0.00,,,0.00,WUHU216HW,2013-01-20 18:09:00,
2013-01-20 13:14:00,55.8,32.4,29.67,WSW,248,5.1,10.1,41,0.00,,,0.00,WUHU216HW,2013-01-20 18:14:00,
2013-01-20 13:19:00,55.8,32.4,29.67,SW,225,8.9,11.4,41,0.00,,,0.00,WUHU216HW,2013-01-20 18:19:00,
2013-01-20 13:24:00,55.8,32.4,29.67,WSW,248,4.0,11.4,41,0.00,,,0.00,WUHU216HW,2013-01-20 18:24:00,
2013-01-20 13:29:00,55.8,32.4,29.67,SW,225,8.5,11.4,41,0.00,,,0.00,WUHU216HW,2013-01-20 18:29:00,
2013-01-20 13:34:00,55.8,32.4,29.67,WSW,248,11.0,12.8,41,0.00,,,0.00,WUHU216HW,2013-01-20 18:34:00,
2013-01-20 13:39:00,55.8,31.9,29.67,SSE,158,6.9,12.8,40,0.00,,,0.00,WUHU216HW,2013-01-20 18:39:00,
2013-01-20 13:44:00,55.8,31.9,29.67,SW,225,7.2,8.7,40,0.00,,,0.00,WUHU216HW,2013-01-20 18:44:00,
2013-01-20 13:49:00,56.0,32.6,29.67,SW,225,3.4,9.2,41,0.00,,,0.00,WUHU216HW,2013-01-20 18:49:00,
2013-01-20 13:54:00,56.0,32.6,29.68,NW,315,8.5,9.2,41,0.00,,,0.00,WUHU216HW,2013-01-20 18:54:00,
2013-01-20 13:59:00,56.2,32.7,29.67,SW,225,4.0,8.5,41,0.00,,,0.00,WUHU216HW,2013-01-20 18:59:00,
2013-01-20 14:04:00,56.3,32.9,29.68,SW,225,9.2,9.2,41,0.00,,,0.00,WUHU216HW,2013-01-20 19:04:00,
2013-01-20 14:09:00,56.2,31.4,29.68,SE,135,5.8,10.5,39,0.00,,,0.00,WUHU216HW,2013-01-20 19:09:00,
2013-01-20 14:14:00,55.8,31.9,29.68,WSW,248,6.9,10.5,40,0.00,,,0.00,WUHU216HW,2013-01-20 19:14:00,
2013-01-20 14:19:00,55.6,31.7,29.68,NNW,338,7.2,7.2,40,0.00,,,0.00,WUHU216HW,2013-01-20 19:19:00,
2013-01-20 14:24:00,55.6,31.0,29.68,WSW,248,8.3,12.1,39,0.00,,,0.00,WUHU216HW,2013-01-20 19:24:00,
2013-01-20 14:29:00,55.3,31.3,29.69,WNW,293,7.6,12.1,40,0.00,,,0.00,WUHU216HW,2013-01-20 19:29:00,
2013-01-20 14:34:00,55.3,31.3,29.69,West,270,8.1,8.7,40,0.00,,,0.00,WUHU216HW,2013-01-20 19:34:00,
2013-01-20 14:39:00,55.1,31.8,29.69,SSW,203,3.8,8.7,41,0.00,,,0.00,WUHU216HW,2013-01-20 19:39:00,
2013-01-20 14:44:00,55.1,31.8,29.69,SSW,203,6.9,10.3,41,0.00,,,0.00,WUHU216HW,2013-01-20 19:44:00,
2013-01-20 14:49:00,55.1,32.3,29.69,SW,225,2.2,10.3,42,0.00,,,0.00,WUHU216HW,2013-01-20 19:49:00,
2013-01-20 14:54:00,55.3,32.5,29.69,WSW,248,4.3,7.8,42,0.00,,,0.00,WUHU216HW,2013-01-20 19:54:00,
2013-01-20 14:59:00,55.3,31.9,29.70,West,270,6.5,8.3,41,0.00,,,0.00,WUHU216HW,2013-01-20 19:59:00,
2013-01-20 15:04:00,55.4,30.1,29.70,SSE,158,8.3,12.5,38,0.00,,,0.00,WUHU216HW,2013-01-20 20:04:00,
2013-01-20 15:09:00,55.3,28.5,29.70,SW,225,9.2,13.4,36,0.00,,,0.00,WUHU216HW,2013-01-20 20:09:00,
2013-01-20 15:14:00,55.1,26.3,29.70,West,270,6.5,13.4,33,0.00,,,0.00,WUHU216HW,2013-01-20 20:14:00,
2013-01-20 15:19:00,54.9,26.8,29.70,NW,315,9.2,12.5,34,0.00,,,0.00,WUHU216HW,2013-01-20 20:19:00,
2013-01-20 15:24:00,54.9,28.3,29.71,SW,225,2.0,11.4,36,0.00,,,0.00,WUHU216HW,2013-01-20 20:24:00,
2013-01-20 15:29:00,54.9,28.9,29.71,NNW,338,4.5,9.2,37,0.00,,,0.00,WUHU216HW,2013-01-20 20:29:00,
2013-01-20 15:34:00,54.9,30.3,29.71,SSW,203,3.8,10.3,39,0.00,,,0.00,WUHU216HW,2013-01-20 20:34:00,
2013-01-20 15:39:00,54.7,30.2,29.71,WSW,248,6.9,10.3,39,0.00,,,0.00,WUHU216HW,2013-01-20 20:39:00,
2013-01-20 15:44:00,54.5,30.7,29.71,WSW,248,2.7,8.5,40,0.00,,,0.00,WUHU216HW,2013-01-20 20:44:00,
2013-01-20 15:49:00,54.5,30.7,29.72,WSW,248,4.5,8.7,40,0.00,,,0.00,WUHU216HW,2013-01-20 20:49:00,
2013-01-20 15:54:00,54.4,30.5,29.72,West,270,5.4,8.7,40,0.00,,,0.00,WUHU216HW,2013-01-20 20:54:00,
2013-01-20 15:59:00,54.2,30.3,29.72,SW,225,3.6,7.8,40,0.00,,,0.00,WUHU216HW,2013-01-20 20:59:00,
2013-01-20 16:04:00,54.0,29.5,29.73,South,180,6.0,9.2,39,0.00,,,0.00,WUHU216HW,2013-01-20 21:04:00,
2013-01-20 16:09:00,53.8,30.1,29.73,NE,45,2.7,9.2,40,0.00,,,0.00,WUHU216HW,2013-01-20 21:09:00,
2013-01-20 16:14:00,53.6,29.2,29.73,WSW,248,6.9,9.2,39,0.00,,,0.00,WUHU216HW,2013-01-20 21:14:00,
2013-01-20 16:19:00,53.5,27.6,29.74,NNW,338,6.0,6.9,37,0.00,,,0.00,WUHU216HW,2013-01-20 21:19:00,
2013-01-20 16:24:00,53.1,26.6,29.74,West,270,6.0,7.6,36,0.00,,,0.00,WUHU216HW,2013-01-20 21:24:00,
2013-01-20 16:29:00,52.6,26.2,29.75,NW,315,8.9,11.4,36,0.00,,,0.00,WUHU216HW,2013-01-20 21:29:00,
2013-01-20 16:34:00,52.2,25.8,29.75,SW,225,4.3,11.4,36,0.00,,,0.00,WUHU216HW,2013-01-20 21:34:00,
2013-01-20 16:39:00,52.0,26.4,29.76,South,180,2.7,7.6,37,0.00,,,0.00,WUHU216HW,2013-01-20 21:39:00,
2013-01-20 16:44:00,51.8,26.2,29.76,SW,225,2.5,7.6,37,0.00,,,0.00,WUHU216HW,2013-01-20 21:44:00,
2013-01-20 16:49:00,51.5,25.9,29.76,SW,225,5.4,5.8,37,0.00,,,0.00,WUHU216HW,2013-01-20 21:49:00,
2013-01-20 16:54:00,51.3,23.7,29.77,WNW,293,4.0,5.6,34,0.00,,,0.00,WUHU216HW,2013-01-20 21:54:00,
2013-01-20 16:59:00,50.9,24.8,29.77,West,270,4.9,7.8,36,0.00,,,0.00,WUHU216HW,2013-01-20 21:59:00,
2013-01-20 17:05:00,50.8,23.2,29.78,WNW,293,6.9,7.8,34,0.00,,,0.00,WUHU216HW,2013-01-20 22:05:00,
2013-01-20 17:10:00,50.6,23.7,29.78,WSW,248,1.3,8.9,35,0.00,,,0.00,WUHU216HW,2013-01-20 22:10:00,
2013-01-20 17:15:00,50.4,22.9,29.78,NW,315,3.1,11.2,34,0.00,,,0.00,WUHU216HW,2013-01-20 22:15:00,
2013-01-20 17:20:00,50.0,21.9,29.78,WSW,248,5.4,11.2,33,0.00,,,0.00,WUHU216HW,2013-01-20 22:20:00,
2013-01-20 17:25:00,49.9,21.1,29.79,West,270,8.5,9.6,32,0.00,,,0.00,WUHU216HW,2013-01-20 22:25:00,
2013-01-20 17:30:00,49.7,20.9,29.79,SW,225,3.4,8.5,32,0.00,,,0.00,WUHU216HW,2013-01-20 22:30:00,
2013-01-20 17:35:00,49.3,21.2,29.80,SSW,203,6.3,6.7,33,0.00,,,0.00,WUHU216HW,2013-01-20 22:35:00,
2013-01-20 17:40:00,49.3,20.6,29.80,SW,225,6.9,7.8,32,0.00,,,0.00,WUHU216HW,2013-01-20 22:40:00,
2013-01-20 17:45:00,49.1,21.1,29.81,WNW,293,6.7,7.8,33,0.00,,,0.00,WUHU216HW,2013-01-20 22:45:00,
2013-01-20 17:50:00,48.8,20.2,29.81,WNW,293,4.3,6.7,32,0.00,,,0.00,WUHU216HW,2013-01-20 22:50:00,
2013-01-20 17:55:00,48.6,20.7,29.82,WSW,248,4.5,5.8,33,0.00,,,0.00,WUHU216HW,2013-01-20 22:55:00,
2013-01-20 18:00:00,48.4,20.5,29.82,West,270,7.4,7.4,33,0.00,,,0.00,WUHU216HW,2013-01-20 23:00:00,
2013-01-20 18:05:00,48.1,19.5,29.83,NNW,338,6.9,7.4,32,0.00,,,0.00,WUHU216HW,2013-01-20 23:05:00,
2013-01-20 18:10:00,47.9,20.1,29.83,West,270,1.6,7.2,33,0.00,,,0.00,WUHU216HW,2013-01-20 23:10:00,
2013-01-20 18:15:00,47.5,19.1,29.83,WNW,293,3.8,14.3,32,0.00,,,0.00,WUHU216HW,2013-01-20 23:15:00,
2013-01-20 18:20:00,47.2,18.7,29.83,SW,225,5.8,7.8,32,0.00,,,0.00,WUHU216HW,2013-01-20 23:20:00,
2013-01-20 18:25:00,47.0,18.5,29.84,NW,315,3.4,7.8,32,0.00,,,0.00,WUHU216HW,2013-01-20 23:25:00,
2013-01-20 18:30:00,46.8,18.4,29.84,WSW,248,1.8,6.9,32,0.00,,,0.00,WUHU216HW,2013-01-20 23:30:00,
2013-01-20 18:35:00,46.4,18.7,29.84,WNW,293,6.3,6.3,33,0.00,,,0.00,WUHU216HW,2013-01-20 23:35:00,
2013-01-20 18:40:00,46.3,18.5,29.84,WNW,293,4.9,6.3,33,0.00,,,0.00,WUHU216HW,2013-01-20 23:40:00,
2013-01-20 18:45:00,46.1,19.1,29.85,SW,225,4.3,6.5,34,0.00,,,0.00,WUHU216HW,2013-01-20 23:45:00,
2013-01-20 18:50:00,45.9,18.9,29.85,West,270,4.0,7.4,34,0.00,,,0.00,WUHU216HW,2013-01-20 23:50:00,
2013-01-20 18:55:00,45.7,18.1,29.86,WNW,293,4.7,7.4,33,0.00,,,0.00,WUHU216HW,2013-01-20 23:55:00,
2013-01-20 19:00:00,45.5,18.6,29.86,WNW,293,5.4,5.4,34,0.00,,,0.00,WUHU216HW,2013-01-21 00:00:00,
2013-01-20 19:05:00,45.4,19.1,29.86,WNW,293,2.7,5.4,35,0.00,,,0.00,WUHU216HW,2013-01-21 00:05:00,
2013-01-20 19:10:00,45.0,17.5,29.86,NNE,23,6.9,8.7,33,0.00,,,0.00,WUHU216HW,2013-01-21 00:10:00,
2013-01-20 19:15:00,44.8,17.9,29.87,WSW,248,3.4,8.7,34,0.00,,,0.00,WUHU216HW,2013-01-21 00:15:00,
2013-01-20 19:20:00,44.8,18.6,29.87,WNW,293,3.4,8.1,35,0.00,,,0.00,WUHU216HW,2013-01-21 00:20:00,
2013-01-20 19:25:00,44.5,18.3,29.88,NNW,338,3.1,6.7,35,0.00,,,0.00,WUHU216HW,2013-01-21 00:25:00,
2013-01-20 19:30:00,44.3,18.1,29.88,NNW,338,6.3,10.5,35,0.00,,,0.00,WUHU216HW,2013-01-21 00:30:00,
2013-01-20 19:35:00,43.9,17.8,29.88,North,0,6.7,10.5,35,0.00,,,0.00,WUHU216HW,2013-01-21 00:35:00,
2013-01-20 19:40:00,43.6,18.2,29.88,WNW,293,4.0,9.4,36,0.00,,,0.00,WUHU216HW,2013-01-21 00:40:00,
2013-01-20 19:45:00,43.4,18.0,29.89,SSW,203,2.7,6.3,36,0.00,,,0.00,WUHU216HW,2013-01-21 00:45:00,
2013-01-20 19:50:00,43.2,17.8,29.89,SW,225,4.5,5.4,36,0.00,,,0.00,WUHU216HW,2013-01-21 00:50:00,
2013-01-20 19:55:00,43.0,18.4,29.89,WSW,248,7.4,7.4,37,0.00,,,0.00,WUHU216HW,2013-01-21 00:55:00,
2013-01-20 20:00:00,42.8,18.2,29.90,NW,315,6.3,7.4,37,0.00,,,0.00,WUHU216HW,2013-01-21 01:00:00,
2013-01-20 20:05:00,42.7,18.0,29.90,NW,315,1.8,6.9,37,0.00,,,0.00,WUHU216HW,2013-01-21 01:05:00,
2013-01-20 20:10:00,42.3,17.7,29.90,NW,315,2.5,9.4,37,0.00,,,0.00,WUHU216HW,2013-01-21 01:10:00,
2013-01-20 20:15:00,42.1,18.2,29.90,WNW,293,4.0,9.4,38,0.00,,,0.00,WUHU216HW,2013-01-21 01:15:00,
2013-01-20 20:20:00,41.8,17.9,29.90,NW,315,8.1,9.2,38,0.00,,,0.00,WUHU216HW,2013-01-21 01:20:00,
2013-01-20 20:25:00,41.6,17.7,29.91,West,270,4.9,9.2,38,0.00,,,0.00,WUHU216HW,2013-01-21 01:25:00,
2013-01-20 20:30:00,41.4,18.2,29.91,WSW,248,5.1,6.9,39,0.00,,,0.00,WUHU216HW,2013-01-21 01:30:00,
2013-01-20 20:35:00,41.0,17.9,29.92,SW,225,1.1,11.4,39,0.00,,,0.00,WUHU216HW,2013-01-21 01:35:00,
2013-01-20 20:40:00,41.0,17.9,29.92,NNW,338,2.9,11.4,39,0.00,,,0.00,WUHU216HW,2013-01-21 01:40:00,
2013-01-20 20:45:00,40.7,16.9,29.93,NNW,338,7.6,8.7,38,0.00,,,0.00,WUHU216HW,2013-01-21 01:45:00,
2013-01-20 20:50:00,40.5,16.7,29.93,NW,315,4.0,8.7,38,0.00,,,0.00,WUHU216HW,2013-01-21 01:50:00,
2013-01-20 20:55:00,40.3,17.3,29.93,West,270,4.3,10.7,39,0.00,,,0.00,WUHU216HW,2013-01-21 01:55:00,
2013-01-20 21:00:00,40.0,16.3,29.94,WSW,248,6.5,10.7,38,0.00,,,0.00,WUHU216HW,2013-01-21 02:00:00,
2013-01-20 21:05:00,39.8,16.1,29.94,WNW,293,2.5,8.5,38,0.00,,,0.00,WUHU216HW,2013-01-21 02:05:00,
2013-01-20 21:10:00,39.6,15.9,29.94,West,270,6.5,6.5,38,0.00,,,0.00,WUHU216HW,2013-01-21 02:10:00,
2013-01-20 21:15:00,39.4,15.8,29.93,WNW,293,8.5,8.5,38,0.00,,,0.00,WUHU216HW,2013-01-21 02:15:00,
2013-01-20 21:20:00,39.2,16.3,29.94,NNW,338,2.5,8.5,39,0.00,,,0.00,WUHU216HW,2013-01-21 02:20:00,
2013-01-20 21:25:00,39.2,16.3,29.94,West,270,5.6,9.2,39,0.00,,,0.00,WUHU216HW,2013-01-21 02:25:00,
2013-01-20 21:30:00,39.1,16.7,29.94,NNW,338,3.4,11.0,40,0.00,,,0.00,WUHU216HW,2013-01-21 02:30:00,
2013-01-20 21:35:00,38.9,16.6,29.95,SW,225,3.6,11.0,40,0.00,,,0.00,WUHU216HW,2013-01-21 02:35:00,
2013-01-20 21:40:00,38.7,16.5,29.95,West,270,4.7,7.2,40,0.00,,,0.00,WUHU216HW,2013-01-21 02:40:00,
2013-01-20 21:45:00,38.5,16.8,29.95,NNW,338,4.7,7.2,41,0.00,,,0.00,WUHU216HW,2013-01-21 02:45:00,
2013-01-20 21:50:00,38.3,16.7,29.95,WNW,293,4.0,6.5,41,0.00,,,0.00,WUHU216HW,2013-01-21 02:50:00,
2013-01-20 21:55:00,38.2,16.5,29.95,WNW,293,3.6,5.4,41,0.00,,,0.00,WUHU216HW,2013-01-21 02:55:00,
2013-01-20 22:00:00,38.0,16.8,29.95,NNW,338,5.8,5.8,42,0.00,,,0.00,WUHU216HW,2013-01-21 03:00:00,
2013-01-20 22:05:00,38.0,16.8,29.95,West,270,0.9,5.8,42,0.00,,,0.00,WUHU216HW,2013-01-21 03:05:00,
2013-01-20 22:10:00,37.8,17.2,29.95,NW,315,4.3,4.3,43,0.00,,,0.00,WUHU216HW,2013-01-21 03:10:00,
2013-01-20 22:15:00,37.8,17.2,29.96,NNW,338,0.9,4.3,43,0.00,,,0.00,WUHU216HW,2013-01-21 03:15:00,
2013-01-20 22:20:00,37.8,17.2,29.96,West,270,3.8,3.8,43,0.00,,,0.00,WUHU216HW,2013-01-21 03:20:00,
2013-01-20 22:25:00,37.6,17.0,29.96,West,270,1.6,4.3,43,0.00,,,0.00,WUHU216HW,2013-01-21 03:25:00,
2013-01-20 22:30:00,37.4,16.8,29.97,SW,225,2.9,4.3,43,0.00,,,0.00,WUHU216HW,2013-01-21 03:30:00,
2013-01-20 22:35:00,37.3,17.2,29.97,WSW,248,2.5,4.0,44,0.00,,,0.00,WUHU216HW,2013-01-21 03:35:00,
2013-01-20 22:40:00,37.1,17.1,29.97,West,270,3.4,4.0,44,0.00,,,0.00,WUHU216HW,2013-01-21 03:40:00,
2013-01-20 22:45:00,37.1,17.1,29.98,West,270,4.0,4.0,44,0.00,,,0.00,WUHU216HW,2013-01-21 03:45:00,
2013-01-20 22:50:00,36.9,16.9,29.98,South,180,0.4,4.0,44,0.00,,,0.00,WUHU216HW,2013-01-21 03:50:00,
2013-01-20 22:55:00,36.9,16.9,29.98,SW,225,2.5,3.4,44,0.00,,,0.00,WUHU216HW,2013-01-21 03:55:00,
2013-01-20 23:00:00,36.7,16.7,29.98,WNW,293,1.1,5.6,44,0.00,,,0.00,WUHU216HW,2013-01-21 04:00:00,
2013-01-20 23:05:00,36.5,16.6,29.98,WNW,293,3.8,5.6,44,0.00,,,0.00,WUHU216HW,2013-01-21 04:05:00,
2013-01-20 23:10:00,36.4,16.9,29.98,North,0,3.6,5.8,45,0.00,,,0.00,WUHU216HW,2013-01-21 04:10:00,
2013-01-20 23:15:00,36.2,16.7,29.99,WNW,293,6.3,6.3,45,0.00,,,0.00,WUHU216HW,2013-01-21 04:15:00,
2013-01-20 23:20:00,36.0,16.1,29.99,NW,315,0.7,9.4,44,0.00,,,0.00,WUHU216HW,2013-01-21 04:20:00,
2013-01-20 23:25:00,35.8,15.9,29.99,WNW,293,1.3,9.4,44,0.00,,,0.00,WUHU216HW,2013-01-21 04:25:00,
2013-01-20 23:30:00,35.6,16.3,29.99,WNW,293,1.8,5.1,45,0.00,,,0.00,WUHU216HW,2013-01-21 04:30:00,
2013-01-20 23:35:00,35.6,16.3,29.99,WSW,248,1.8,5.1,45,0.00,,,0.00,WUHU216HW,2013-01-21 04:35:00,
2013-01-20 23:40:00,35.5,16.1,29.99,SW,225,1.1,3.8,45,0.00,,,0.00,WUHU216HW,2013-01-21 04:40:00,
2013-01-20 23:45:00,35.5,16.1,29.99,WNW,293,2.0,3.8,45,0.00,,,0.00,WUHU216HW,2013-01-21 04:45:00,
2013-01-20 23:50:00,35.3,15.9,29.98,WNW,293,1.3,3.6,45,0.00,,,0.00,WUHU216HW,2013-01-21 04:50:00,
2013-01-20 23:55:00,35.3,15.9,29.98,NW,315,5.1,5.8,45,0.00,,,0.00,WUHU216HW,2013-01-21 04:55:00,